GFSFLT2_con_sbcape_114.txt.gz
CAPE
1810 1579 1433 1307 1354 1536 1770 1900 1980 1816 2085 2072 2260 2067 1736 1743 1906 1850 1590 1676 1539 1433 1264 1128 1071 996 804 670 482 186 117 365
2326 2022 1723 1612 1437 1251 1460 1624 1804 1876 1983 1828 2083 1676 1625 1527 1575 1494 1418 1481 1356 1434 1048 875 903 641 531 364 262 102 57 263
2557 2313 2019 1899 1731 1440 1097 1333 1526 1664 1770 1809 1520 1972 1789 1672 1443 1209 1264 1178 1156 1353 842 687 601 466 328 178 51 142 289 145
2176 2266 2207 2197 1824 1729 1638 1602 1513 1712 1917 1851 1660 2077 1839 1537 1370 961 891 564 869 852 646 495 285 233 82 129 95 294 142 219
1418 2251 2482 2216 1593 2062 1851 1909 1720 1637 1771 1955 2009 1959 1765 1395 1382 953 899 555 626 441 234 365 531 472 213 138 155 154 119 197
1055 1943 2427 2289 1844 1959 1942 1756 1924 1775 1768 1788 2041 2039 1872 1737 1452 1297 1110 792 575 527 520 433 638 370 308 282 107 204 94 149
1012 1517 2232 2462 2506 1713 1900 2110 2022 1950 1952 1983 1947 2080 1854 1735 1536 1381 1109 955 676 618 616 709 494 357 240 312 122 69 81 28
1257 1334 2133 2369 2350 2321 1777 2540 2037 2066 2000 2013 2383 2123 1819 1606 1534 1365 1259 1128 933 681 699 584 540 378 313 247 122 72 59 54
1442 1715 2271 2454 2514 2236 2365 1965 2296 1883 2050 1989 2116 2154 2000 1650 1520 1454 1260 985 790 703 597 578 423 286 201 129 68 30 56 67
1441 1650 2445 2417 2401 2342 1988 1978 2086 2157 1872 1673 1764 2059 1959 1577 1376 1306 1234 882 746 686 548 341 270 91 127 30 9 14 35 63
119 1846 2736 2570 2335 2494 2258 1993 1912 1611 1880 1816 1682 1757 1817 1485 1436 1287 1200 804 601 471 422 304 188 87 42 15 1 17 14 57
205 1592 2110 2692 2393 2266 2500 2078 1726 1557 1496 1486 1336 1102 1538 1258 1004 1282 1158 813 472 354 185 245 73 22 34 21 13 11 21 14
0 110 1684 2088 2201 2444 2297 2233 1636 1381 1322 1223 956 935 1117 985 896 915 740 429 58 38 2 3 2 3 1 12 9 15 10 24
3 0 0 756 1635 1611 2030 2081 1750 1291 1119 1224 1163 1169 1089 671 838 539 438 100 1 1 0 0 0 2 2 10 14 5 1 18
0 0 1 43 2 1101 1439 1254 829 607 627 681 1257 1064 859 672 497 273 75 0 0 1 0 0 0 1 0 1 0 0 8 13
0 31 31 34 376 428 1295 917 750 613 563 533 998 914 695 589 522 103 0 0 1 1 1 0 0 0 1 0 0 0 0 6
9 37 112 92 316 546 1182 1020 857 500 356 382 448 596 586 402 488 65 1 0 0 0 1 0 0 0 0 0 0 0 0 0
13 0 0 195 328 577 1163 849 701 492 570 456 468 593 548 555 282 35 1 1 0 0 0 0 0 0 0 0 0 0 0 0
21 0 0 0 486 315 999 1033 702 592 787 787 607 452 450 373 221 19 3 1 0 0 1 1 0 0 0 1 1 1 0 0
0 0 0 0 0 324 397 957 618 544 854 968 434 336 320 341 224 33 1 3 1 0 1 1 0 0 1 0 8 8 3 5

GFSFLT2_con_sbcape_117.txt.gz
CAPE
863 1048 1188 1444 1624 1762 1741 1726 1783 1863 1989 2049 2128 2024 1839 1880 1771 1823 1587 1384 1373 1317 1179 1113 1048 983 893 767 588 237 45 67
874 845 846 832 1077 1521 1599 1628 1700 1638 1840 1795 2018 1783 1534 1593 1695 1612 1541 1241 1220 1172 1047 974 977 874 745 619 150 79 80 176
1140 1042 897 787 769 1110 1350 1483 1606 1452 1720 1280 1558 1382 1320 1323 1341 1281 1378 1146 1096 942 770 794 783 536 456 294 53 36 42 187
1470 1191 1105 1004 1214 864 737 1054 1041 1142 1440 1187 1251 1417 1311 1362 1227 1142 1190 1005 984 839 673 504 350 129 113 128 67 158 47 90
1645 1498 1331 1278 1442 768 852 811 861 1064 1311 1263 1045 1417 1312 1147 880 771 675 585 594 573 337 130 108 1 0 10 2 74 98 21
1640 1537 1516 1457 999 1028 1004 1046 911 911 943 1147 1173 1205 1068 804 682 480 337 51 201 110 0 94 161 103 24 0 33 62 30 20
1356 1529 1644 1548 1036 1497 1198 1218 1221 1167 1044 1107 1196 1226 1087 915 724 581 521 188 113 115 43 31 97 104 110 89 16 17 4 9
826 1376 1698 1552 1437 1082 1111 1168 1263 1196 1114 1222 995 1280 1101 958 814 642 493 416 136 191 104 71 133 29 70 149 1 6 10 0
503 1298 1592 1569 1313 1328 979 1413 1324 1326 1240 1308 1422 1314 1114 943 800 657 570 469 237 135 120 87 88 88 39 184 0 0 4 35
477 1229 1729 1971 1584 1262 1227 1485 1440 1231 1386 1220 1516 1494 1214 944 878 707 543 329 108 178 112 42 43 35 0 0 0 0 27 27
810 1243 1639 1796 1625 1530 1211 1018 1449 1333 1165 1202 1005 1398 1282 958 869 678 582 291 115 52 10 24 71 31 1 8 1 0 19 51
556 1244 1764 1879 1850 1534 1328 1171 923 943 1360 1241 975 1032 1291 891 807 709 591 196 5 32 82 0 21 12 31 7 0 0 1 17
59 1832 1802 1733 1583 1579 1428 1553 1169 762 612 1044 1113 1088 1216 1011 852 564 682 329 188 91 87 50 1 0 3 3 2 7 2 3
0 903 1908 1911 1823 1635 1501 1310 1152 1163 579 474 678 609 883 1078 902 464 245 170 132 13 0 0 0 1 0 0 1 1 1 8
0 0 137 850 1488 1197 737 580 265 526 415 380 432 441 604 793 574 286 146 9 1 0 0 0 0 1 0 0 0 0 0 1
0 0 0 0 0 477 957 972 798 361 301 297 342 731 743 725 494 183 8 0 0 0 0 0 0 0 4 0 0 0 0 1
1 0 0 0 0 0 588 505 751 166 113 223 198 506 719 658 444 110 10 0 0 0 1 0 0 0 5 0 0 0 0 0
0 0 0 0 0 0 644 477 341 166 87 100 189 242 492 275 426 104 26 0 0 0 0 0 0 0 0 0 0 0 0 0
0 0 0 0 0 0 0 279 216 84 72 59 78 122 366 461 328 70 2 0 0 0 0 0 0 0 0 0 0 0 0 0
0 0 0 0 0 0 0 0 191 159 123 233 112 180 429 426 275 71 5 0 0 0 1 0 0 0 0 0 0 0 0 0

GFSFLT2_con_sbcape_120.txt.gz
CAPE
779 1070 1412 1610 1693 1675 1506 1460 1614 1701 1831 1951 2018 1854 1783 1645 1575 1705 1715 1657 1621 1532 1252 1159 1050 988 940 387 125 62 40 6
633 792 1066 1343 1485 1494 1502 1551 1569 1653 1709 1828 1826 1643 1613 1607 1503 1542 1436 1337 1386 1264 1144 1064 1015 943 842 227 66 20 0 0
558 667 612 595 1026 1387 1420 1461 1454 1537 1618 1724 1657 1325 1275 1454 1376 1388 1303 1094 1128 1041 956 964 920 801 614 17 1 0 46 124
595 604 531 423 1063 1186 1164 1379 1292 1100 1234 1157 1166 1105 926 1136 1200 1163 1190 951 923 750 725 864 671 295 58 27 0 0 35 5
860 649 545 576 811 606 747 873 686 699 1053 689 968 1134 1031 944 736 796 798 777 675 541 415 379 356 27 0 0 0 8 0 36
1135 821 736 704 649 498 579 659 606 707 1101 837 822 1053 882 748 523 428 398 179 309 184 67 32 54 0 0 0 0 0 0 0
1449 1077 932 912 843 523 585 606 635 654 750 885 848 891 984 506 394 276 162 0 21 3 0 0 25 0 0 0 0 0 0 0
1636 1417 1212 1114 1085 1006 780 726 668 618 645 892 937 877 909 463 374 348 227 0 0 0 0 0 2 7 0 0 0 0 0 0
1444 1507 1412 1371 1134 1258 1009 983 967 853 810 794 860 890 801 660 399 337 284 176 0 0 0 0 0 0 0 0 0 0 0 0
904 1581 1531 1504 1282 1034 940 1058 1114 1086 905 916 881 854 807 585 495 398 239 149 24 18 2 0 10 12 0 5 0 0 0 1
731 1157 1481 1552 1339 1125 907 1106 1174 1087 1059 1026 1066 999 853 729 630 323 197 95 56 48 28 45 16 2 0 1 1 1 0 5
492 793 1342 1649 1515 1216 843 1116 1139 1016 1178 1155 884 1227 878 760 572 379 250 58 0 1 1 0 93 97 1 9 1 2 0 1
342 691 1181 1617 1649 1480 921 1055 938 1021 1052 1152 906 986 1058 701 606 589 498 243 19 0 0 5 9 11 1 2 2 2 1 0
384 927 1256 1557 1681 1748 1329 883 752 949 923 924 984 733 884 1007 782 652 700 318 11 14 107 4 1 2 3 0 8 1 12 1
997 1562 1622 1609 1540 907 359 265 149 347 294 615 802 733 721 917 809 454 487 364 294 185 99 20 0 1 1 0 1 7 5 3
0 91 157 101 450 817 642 1152 1278 709 649 509 344 523 481 578 498 260 312 264 243 73 7 16 0 2 14 1 0 0 1 0
0 0 0 0 0 0 657 830 612 52 72 242 369 318 483 607 445 386 219 66 18 9 0 0 0 0 3 0 0 0 0 0
0 0 0 0 0 0 0 0 64 100 102 99 18 166 543 546 507 249 171 24 0 0 0 0 0 0 0 2 0 1 0 0
0 0 0 0 0 0 0 0 0 2 74 220 235 58 12 153 284 156 99 13 0 0 0 0 0 0 0 1 0 2 0 0
0 0 0 0 0 0 0 0 0 0 1 69 97 105 98 100 113 117 36 1 0 0 0 0 0 1 0 0 0 0 0 0

GFSFLT2_con_sbcape_123.txt.gz
CAPE
840 1062 1354 1579 1672 1561 1427 1469 1502 1577 1688 1760 1853 1799 1568 1534 1715 1847 1774 1820 1640 1436 1159 1012 970 921 476 167 109 84 53 126
825 1029 1242 1400 1399 1261 1084 1307 1415 1503 1609 1612 1606 1564 1502 1441 1534 1728 1572 1602 1522 1314 1023 954 923 864 250 130 55 30 0 68
651 830 970 1088 1249 1233 1100 1273 1330 1404 1486 1502 1320 1122 1242 1338 1281 1496 1473 1327 1257 1202 930 891 875 652 113 125 0 1 0 0
561 696 538 616 1027 1316 1351 1356 1365 1388 1391 1279 1097 889 896 1139 1157 1290 1285 1028 1059 875 796 699 617 7 0 24 0 0 0 0
443 547 511 748 1050 938 881 1008 1031 1199 986 839 907 813 709 822 807 908 862 785 627 578 443 292 226 0 0 0 0 0 0 0
436 421 449 477 654 584 636 729 740 817 1080 450 698 1075 665 547 505 480 458 399 316 182 41 26 0 0 0 0 0 0 0 0
512 413 421 435 439 484 507 454 569 547 778 667 706 931 878 532 352 207 162 53 124 32 0 0 0 0 0 0 0 0 0 0
644 507 446 458 485 377 428 494 620 521 657 904 733 892 844 463 273 168 55 5 2 13 0 0 0 0 0 0 0 0 0 0
1267 748 503 503 560 381 316 403 411 439 564 740 914 699 601 408 335 169 100 0 0 0 0 0 0 0 0 0 0 0 0 0
1594 1450 923 702 688 747 582 467 479 444 416 535 759 773 574 381 311 228 60 14 0 0 0 0 0 0 1 1 1 0 0 0
1029 1603 1408 1183 989 1049 941 775 765 704 568 557 595 719 710 550 436 181 33 46 10 7 1 0 0 0 1 0 1 1 0 0
923 1440 1579 1493 1375 909 615 691 783 728 817 779 646 678 727 661 496 163 103 30 30 14 59 0 14 33 1 1 1 0 0 1
626 805 1398 1521 1466 992 803 1110 957 796 903 948 780 867 674 697 662 258 219 168 24 9 0 12 41 79 2 5 1 2 3 5
97 516 1024 1454 1587 1402 1304 1260 1009 1023 832 1013 882 938 799 801 689 499 567 448 39 20 131 63 95 55 29 3 14 1 2 7
0 291 658 1269 1508 906 367 317 218 295 538 908 1009 733 899 936 679 584 394 369 142 72 142 133 54 26 0 3 5 3 5 6
0 50 143 380 643 669 855 931 859 815 865 1088 659 663 758 925 679 514 566 508 346 186 176 152 53 52 9 0 0 0 4 4
0 0 0 0 0 1 5 80 76 16 200 552 321 586 587 696 788 590 508 402 395 232 83 48 17 9 9 1 0 0 0 0
0 0 0 0 0 0 0 0 0 4 65 283 203 223 408 469 548 545 587 271 172 64 23 17 7 0 0 0 0 5 2 0
0 0 0 0 0 0 0 0 0 0 0 37 96 19 169 385 246 257 284 170 60 18 0 0 0 0 0 0 0 0 2 2
0 0 0 0 0 0 0 0 0 0 0 0 28 94 106 286 115 198 169 11 0 0 0 0 0 0 0 0 0 0 0 0

GFSFLT2_con_sbcape_129.txt.gz
CAPE
1949 1941 1740 1538 1680 1612 1364 1313 1404 1556 1706 1861 1972 1811 1718 1738 1979 2004 1958 1630 1344 1086 895 804 809 540 218 204 180 287 1024 1001
1850 1921 1956 2031 2024 1449 1247 1210 1269 1427 1502 1586 1546 1429 1499 1501 1637 1827 1721 1386 1095 920 674 674 603 458 108 40 88 87 848 927
1605 1724 1874 1978 1697 1711 1215 1106 1142 1240 1382 1351 1219 1871 1898 1762 1608 1522 1433 1085 869 729 561 523 329 183 121 28 0 564 773 888
1291 1495 1677 1703 1342 1535 1888 1791 1654 1726 1826 1889 1997 1924 1831 1726 1546 1244 1344 978 720 580 472 352 442 1034 712 68 680 597 695 878
1105 1332 1545 1292 1179 1364 1536 1718 1705 1782 1892 1964 1901 1849 1781 1697 2072 1825 1924 1119 1321 637 671 872 1094 997 969 857 734 652 620 792
1060 1209 1257 1306 1242 1177 1326 1329 1411 1492 1493 1428 1540 1679 1857 1869 1720 2017 1912 1627 1530 1334 1209 923 957 553 952 913 686 638 521 467
773 905 982 903 1181 1067 1024 1181 1307 1214 1269 1184 1384 1298 1353 1505 1756 1797 1789 1590 1485 1332 1014 852 758 676 692 703 599 594 592 597
715 610 611 642 906 1161 1082 1030 1160 1185 1193 1111 1097 1186 1315 1100 1357 1639 1734 1607 1330 1237 990 737 699 638 712 575 550 532 509 521
605 617 398 519 773 1113 1039 885 868 911 998 1104 988 1138 1236 1105 895 1256 1576 1537 1368 1221 1006 682 626 499 600 461 417 414 414 400
587 748 613 461 629 798 974 1022 845 780 647 718 1056 1093 1080 963 677 750 1396 1392 1341 1207 1055 845 692 551 530 490 379 368 395 384
741 971 1038 1125 959 590 589 619 616 596 504 583 812 840 786 789 564 630 1179 1279 1055 1099 779 938 566 363 365 51 61 58 377 354
1364 952 1015 1282 1337 1087 808 427 346 335 286 448 539 498 517 514 1111 744 1181 1069 844 776 740 571 567 614 76 5 36 26 158 663
1863 1408 1077 1116 1257 1247 1039 929 667 652 904 1031 864 716 389 665 1118 1199 1050 747 626 484 736 579 360 153 71 57 51 77 85 456
1847 1995 1533 1071 1071 1303 1324 1386 1221 976 1027 982 1015 1119 898 998 1007 962 729 611 635 445 486 342 359 186 186 100 272 196 82 117
1400 1960 1967 1695 1461 1483 1319 1326 1213 1286 1037 842 948 1015 1125 1182 1099 849 712 798 562 420 492 826 382 131 235 574 243 223 90 45
880 1634 2098 2166 2068 1842 1624 1516 1300 1441 1247 996 985 1097 1121 1027 1120 956 914 725 949 578 560 877 837 239 127 55 4 47 116 62
95 885 1471 1930 2145 2062 2041 1990 2160 1949 1649 1135 1212 918 598 407 263 300 609 637 972 740 569 670 1164 1154 408 87 10 0 0 25
0 0 0 0 85 1024 1880 1666 1360 1210 1431 933 918 718 37 0 0 0 198 580 742 788 766 580 876 1132 850 481 138 17 1 12
0 0 0 0 0 0 0 0 0 318 658 705 642 256 239 23 6 61 435 784 806 727 516 581 742 705 650 487 134 266 2 9
0 0 0 0 0 0 0 0 0 0 0 0 5 108 359 352 348 437 628 803 758 466 474 604 614 710 806 742 145 170 0 0

GFSFLT2_con_sbcape_132.txt.gz
CAPE
2682 2258 1886 1553 1664 1555 1428 1446 1595 1791 1978 2103 2193 2078 1904 1904 1976 1974 1900 1690 1427 1184 985 780 618 477 342 140 269 470 910 883
2752 2560 2342 2247 2117 1305 1258 1290 1400 1591 1775 1926 1896 1748 1696 1774 1879 1918 1708 1437 1178 1025 783 673 473 194 132 69 88 205 778 813
2655 2635 2502 2454 2367 1868 1119 1116 1234 1346 1539 1576 1605 2040 2157 2115 1867 1790 1524 1106 934 800 627 600 394 104 28 26 45 558 576 674
2431 2579 2469 2412 2080 2300 2026 1755 1747 1841 1881 2161 2038 2060 2115 2008 1771 1529 1350 900 716 592 468 344 358 1019 816 74 680 639 734 648
2046 2360 2429 2337 1974 2126 2070 2064 1871 1926 1998 2107 1968 2131 2232 2075 2258 2090 1979 955 1061 692 836 1015 950 1079 1003 852 776 946 702 720
1763 1864 2204 2312 1842 1970 2032 2160 2194 2062 2139 2494 2446 2320 2273 2145 2128 1959 1909 1566 1363 920 830 917 1254 1191 1148 1123 1093 867 738 655
1535 1641 1947 2103 2017 1731 1992 2089 2119 2083 2183 2693 2461 2311 2353 2192 2238 2018 1916 1828 1511 1547 1339 1311 1342 1164 1077 1177 1111 1020 885 651
1199 1448 1728 1830 1804 1849 1935 2082 2050 2048 2107 2274 2502 2326 2359 2328 2268 2110 2286 2131 1741 1705 1575 1487 1300 1155 1128 1076 1009 895 871 764
507 1372 1523 1619 1552 1913 1836 1729 1596 1815 1851 1903 1996 2339 2325 2258 2122 2219 1971 2100 1973 1764 1549 1472 1307 1189 1147 1171 1065 984 852 857
188 824 1251 1420 1477 1709 1771 1697 1625 1548 1841 1937 2002 1858 2215 2104 1917 1940 2028 2262 1906 1843 1662 1509 1267 1212 1223 1139 1069 1017 960 939
0 863 1235 1336 1359 1585 1852 1688 1749 1813 1666 1698 1729 1782 1936 1856 1800 1607 2162 2015 1682 1768 1683 1560 1395 1217 1161 1199 1199 1060 768 739
0 376 1389 1485 1476 1614 1677 1680 1749 1717 1804 1924 1863 1473 1775 1585 1675 1294 1874 1972 1757 1611 1562 1654 1507 1522 988 1014 1205 974 765 596
0 56 1517 1865 1647 1746 1568 1500 1162 1361 1444 1309 1501 1260 1324 1380 1474 1396 1955 1821 1728 1382 1483 1381 1483 1381 1338 818 805 1000 764 639
0 0 1238 1717 1817 1886 1881 1912 1333 1117 1068 1144 1240 1039 1165 1094 1470 1785 1704 1697 1816 1119 1504 1329 1349 1400 1128 1004 857 552 515 856
0 0 566 1603 1746 1851 1766 1978 1419 1124 1201 1328 1595 1587 1351 987 1385 1672 1648 1581 1512 1066 1189 1160 929 945 1555 963 1006 769 677 599
0 0 114 1568 1717 1679 1606 1755 1413 1274 1534 1313 1363 1553 1531 1715 1863 1637 1682 1365 1188 1032 1142 1413 1658 991 845 1489 1340 979 629 548
0 0 0 1366 1974 1764 1878 1743 1730 1518 1396 1594 1836 1570 1566 1631 1680 1735 1115 1154 833 691 445 1058 1829 1881 1045 1030 1422 742 316 380
6 0 2 1171 1984 2082 2163 1939 2040 2394 2234 2392 2046 1854 1469 1526 838 381 292 48 30 64 759 877 983 1503 1477 1436 1262 949 752 577
1 0 0 0 0 35 1343 2434 2328 2311 2225 1797 1552 1088 589 358 594 90 3 0 5 0 232 629 825 1027 1479 1689 1750 1497 977 874
0 0 0 0 0 0 0 0 0 1 44 669 1249 1232 1437 1191 836 529 326 96 327 419 391 634 1089 1033 1221 1694 1822 1663 1261 980

GFSFLT2_con_sbcape_138.txt.gz
CAPE
2678 1885 1543 1655 2034 2074 1969 1838 1820 1875 2014 2162 2243 2176 1974 1894 1954 2045 2089 1859 1562 1210 1002 833 734 555 412 288 178 261 122 539
3024 2261 1838 1753 1924 1655 1678 1720 1676 1776 1875 2011 2022 1942 1802 1764 1812 1909 1852 1610 1266 1059 756 625 474 268 171 135 81 105 83 552
3026 2504 2178 1898 1849 1717 1332 1476 1517 1616 1746 1758 1538 2083 1849 1667 1798 1770 1673 1310 1021 866 570 397 187 100 62 40 17 106 400 474
3095 2739 2521 2189 1782 1841 1902 1974 1899 1999 2119 1894 2174 2007 1936 1780 1638 1662 1495 1045 807 700 497 191 75 230 89 35 94 196 275 487
2498 3388 2854 2594 2310 2185 1572 1769 2027 2221 2350 2293 2168 1953 1878 1442 1642 1653 1406 825 721 480 302 378 332 567 419 288 257 424 402 266
466 2952 3262 2861 2683 2500 1969 1756 1721 1911 2123 2392 1981 1797 2082 1749 2096 1963 1642 954 824 636 684 639 736 704 833 708 836 659 285 256
0 941 2813 3166 3214 2682 2392 1953 1884 1865 1998 2228 2019 1910 1841 2005 2092 2067 1652 1137 934 749 745 695 810 1045 907 610 842 587 864 217
0 0 2925 2837 2844 2764 2358 2139 2092 2026 2030 2153 2262 2115 1828 1925 2090 2013 1726 1435 1033 1015 777 824 851 957 733 874 849 757 514 599
0 0 269 2861 2661 2564 2470 1793 2259 1933 2130 2408 2319 2249 2223 1982 1956 2057 1980 1694 1544 1334 1147 1311 799 798 713 902 785 761 745 528
0 0 0 1691 2450 2436 2260 2149 1862 2065 1928 2507 2536 2281 2263 2165 1973 2065 2207 2129 1836 1695 1661 1248 1317 772 909 805 709 488 411 875
0 0 0 0 2115 2364 2330 2143 2240 1565 2071 2269 2772 2460 2211 2237 2150 2209 2126 2095 2084 1857 1538 1579 1065 1008 1161 936 784 655 648 522
0 0 0 0 5 2118 2029 1938 2002 1839 2016 1813 2739 2664 2249 2187 2170 2054 1912 1974 1989 1546 1653 1607 1190 945 661 454 928 1232 792 736
0 0 0 0 0 941 1592 1609 1779 1724 1776 2009 2416 2423 2319 2314 2258 2111 1892 1919 2039 1980 1753 1733 1216 1464 792 809 651 717 1077 841
0 0 0 0 0 0 1443 1481 1638 1679 1781 1843 1770 2202 1975 1940 2493 2041 1970 1814 2165 1881 1634 1603 1643 1385 1127 856 641 741 876 822
1 0 0 0 0 0 0 1438 1235 1432 1493 1956 1793 2231 1942 1751 1914 2199 2014 1552 1801 2019 1461 1241 1081 1299 1085 761 489 382 611 674
0 2 0 0 0 0 0 28 1012 1141 1294 1737 2033 2046 2012 1753 1744 1731 1754 1376 1315 1903 1835 1329 985 1037 1131 1058 877 962 545 554
2 0 0 0 0 0 0 0 405 989 1421 1457 1956 1994 2141 1771 1611 1583 1597 1604 1416 1945 1675 1323 1001 1053 842 659 633 675 576 403
5 1 1 2 4 1 0 0 2 794 1056 1310 1432 1896 1818 1653 1498 1381 1333 1888 1729 1412 1224 1027 1039 910 753 552 494 514 508 456
8 7 2 2 3 3 2 0 0 97 798 1091 1097 1567 1488 1493 1282 1095 1262 1736 1385 1021 842 747 872 794 634 380 475 542 465 386
3 6 2 3 8 10 1 0 0 44 543 980 1008 1162 1585 1632 1302 1208 1365 1626 1132 851 707 548 414 238 77 203 376 501 435 424

GFSFLT2_con_sbcape_141.txt.gz
CAPE
1361 1471 1631 1871 2110 2121 1989 1837 1784 1822 1881 1920 2008 2020 1822 1760 1861 1985 2061 1821 1433 1079 896 765 657 499 333 190 63 86 0 512
1541 1341 1355 1436 1572 1937 1876 1767 1698 1742 1803 1845 1852 1803 1684 1675 1778 1894 1869 1611 1179 922 731 615 483 297 143 60 0 0 1 204
1969 1530 1295 1317 1520 1502 1601 1610 1577 1569 1655 1655 1334 1571 1480 1540 1582 1730 1632 1358 951 735 564 450 255 119 38 11 0 0 154 205
2212 1722 1383 1218 1547 1509 1325 1403 1422 1432 1566 1416 1478 1495 1369 1549 1494 1573 1473 1110 786 608 421 258 128 8 2 11 0 0 157 113
440 2058 1640 1389 1381 1218 1420 1542 1489 1515 1585 1456 1581 1492 1429 1366 1045 1372 1100 804 542 461 276 112 44 33 18 0 0 5 97 30
0 32 2163 1692 1541 1406 1207 1433 1550 1650 1751 1624 1601 1378 1294 945 1051 1205 948 546 305 270 157 153 100 61 88 52 12 65 12 64
0 0 19 2079 1939 1810 1287 1102 1413 1741 1834 1842 1592 1407 1272 979 1261 1351 1143 548 325 192 229 247 261 249 382 201 342 348 204 85
0 0 0 0 1661 1649 1553 1250 1289 1319 1633 1854 1653 1480 1265 1199 1533 1472 1178 613 444 288 271 269 238 258 487 479 523 317 146 68
0 0 0 0 1059 1697 1696 1557 1484 1359 1457 1661 1813 1389 1280 1422 1526 1600 1280 742 402 443 223 324 224 301 466 568 333 508 84 177
0 0 0 0 0 384 1335 1247 1327 1516 1527 1600 1865 1642 1477 1411 1466 1588 1345 826 610 776 579 466 583 582 399 429 434 167 354 254
0 0 0 0 0 0 336 1106 1105 1254 1441 1623 1895 1748 1659 1548 1480 1536 1399 1372 1176 1037 958 548 460 580 665 559 477 127 38 99
0 0 0 0 0 0 0 919 909 1095 1138 1412 1849 1906 1662 1668 1538 1485 1581 1652 1494 1179 975 896 932 501 468 468 581 416 386 75
0 0 0 0 0 0 0 0 621 892 1056 1249 1435 1733 1818 1661 1709 1529 1660 1640 1643 1304 1023 1086 699 471 293 282 254 421 336 313
0 0 0 0 0 0 0 0 366 874 969 990 1162 1490 1798 1659 1690 1681 1687 1536 1416 1350 1121 952 703 462 492 175 315 147 294 275
0 0 2 1 0 0 0 0 5 420 841 939 977 1355 1572 1606 1541 1683 1574 1398 1452 1461 1269 1011 1031 560 442 214 196 186 87 103
0 2 0 3 0 1 2 4 0 0 0 564 693 883 1170 1374 1510 1655 1436 1382 1406 1456 1315 1119 935 1095 434 298 102 45 174 400
1 3 2 2 0 3 2 3 5 0 22 651 666 723 1090 1231 1393 1608 1486 1376 1218 1476 1369 937 756 925 1068 436 516 321 193 177
2 1 0 5 3 3 5 0 0 3 0 0 454 518 773 1017 1160 1251 1303 1220 820 1039 1471 1142 813 591 580 364 463 535 461 339
6 7 3 4 5 7 6 1 0 2 0 0 52 244 368 754 849 967 1345 1044 863 854 1295 1181 839 563 475 411 302 209 118 131
8 0 9 5 6 8 6 11 10 1 1 1 0 0 214 461 311 843 989 1094 1025 877 1120 971 720 590 244 178 184 171 188 205

GFSFLT2_con_sbcape_144.txt.gz
CAPE
1345 1471 1641 1845 2023 2023 1937 1781 1728 1686 1731 1825 1995 1845 1646 1704 1799 1857 1996 1824 1436 1141 910 746 657 519 334 155 39 5 51 61
1216 1238 1442 1502 1687 2008 1913 1750 1668 1663 1655 1629 1722 1627 1501 1596 1713 1837 1859 1645 1207 995 761 632 542 329 157 39 0 0 15 281
1557 1103 1066 1133 1269 1523 1805 1739 1638 1503 1545 1484 1320 1409 1307 1397 1519 1729 1709 1471 1023 794 621 498 336 188 76 0 0 0 45 98
1478 1485 1189 1047 1523 1537 1518 1707 1686 1521 1475 1394 1307 1244 1189 1424 1391 1491 1533 1258 842 621 494 311 167 26 2 0 0 0 85 70
0 12 205 1117 1163 1290 1209 1348 1415 1297 1377 1447 1296 1302 1158 1224 1078 1220 1094 926 527 412 261 86 31 0 0 0 0 0 55 5
0 0 0 0 905 1178 1036 1330 1357 1284 1392 1346 1334 1373 1183 1157 1023 1164 1000 655 306 219 34 3 0 0 0 0 0 0 4 0
0 0 0 0 0 37 1068 1224 1361 1443 1553 1571 1538 1456 1220 900 915 1087 835 426 209 109 27 7 0 0 23 49 3 3 22 21
0 0 0 0 0 0 0 1028 1182 1144 1472 1659 1574 1528 1232 1002 921 1028 868 500 213 101 80 36 2 0 4 125 128 169 173 25
0 0 0 0 0 0 0 0 444 996 1393 1628 1665 1537 1290 1236 1056 1075 1009 606 280 115 52 61 8 0 37 95 378 200 113 118
0 0 0 0 0 0 0 0 0 432 1081 1402 1590 1478 1376 1213 1165 1186 1044 676 356 230 119 101 81 22 44 80 481 173 26 77
0 0 0 0 0 0 0 0 0 0 908 1047 1276 1526 1300 1243 1241 1313 1093 774 499 345 261 131 193 168 171 40 307 67 14 29
0 0 0 0 0 0 0 0 0 0 19 772 916 1365 1297 1074 1153 1235 1166 1011 755 414 441 229 288 280 407 313 208 272 1 0
0 0 0 0 0 0 0 2 0 0 0 26 941 949 1322 1143 1072 1232 1217 1295 1031 663 574 444 261 133 40 19 0 196 248 163
0 0 0 0 0 1 1 1 3 0 0 0 534 912 885 912 1052 1229 1121 1240 1152 896 731 653 530 107 235 63 88 66 66 25
0 0 0 2 1 4 2 1 2 4 0 0 114 708 803 906 891 1082 1006 1125 1210 1099 871 770 621 124 179 80 28 134 0 0
0 1 0 3 4 4 4 6 1 4 1 2 0 0 617 755 764 876 611 1138 1192 1167 1001 862 713 598 8 4 0 0 36 60
0 1 0 0 0 5 6 10 15 12 3 1 1 0 109 347 547 746 531 861 1016 1054 980 884 624 727 611 226 0 0 0 0
2 2 8 5 0 6 9 7 6 8 11 2 3 1 0 20 392 767 299 348 499 958 917 905 733 663 692 514 447 171 75 17
1 0 6 9 10 8 9 11 7 12 7 1 0 2 3 0 72 245 501 506 79 721 919 909 752 661 569 457 562 538 11 31
0 1 10 10 11 10 11 11 10 9 13 7 5 0 3 0 0 0 0 189 415 138 895 1018 772 705 424 540 218 61 80 0